Hourly Data Report for November 05, 2017

SHEARWATER RCS
NOVA SCOTIA

44°37'47.000" N
63°30'48.000" W
24.00 m
8205092
71264
AAW

Download Data

Hourly Data (November 2017)
Hourly Data Report for November 5, 2017
TIME
LST
Temp Definition
°C
Dew Point Definition
°C
Rel Hum Definition
%
Precip. Amount Definition
mm

Wind Dir Definition
10's deg

Wind Spd Definition
km/h
Visibility Definition
km
Stn Press Definition
kPa
Hmdx Definition


Wind Chill Definition


Weather Definition


00:00 3.4 -2.9 63 0.0 35 12   102.83     LegendNANA
01:00 2.8 -3.0 66 0.0 35 14   102.91     LegendNANA
02:00 2.6 -3.0 67 0.0 36 13   102.99     LegendNANA
03:00 2.1 -3.5 66 0.0 36 13   103.03     LegendNANA
04:00 1.6 -3.9 67 0.0 36 11   103.08     LegendNANA
05:00 1.6 -3.8 68 0.0 2 10   103.10     LegendNANA
06:00 1.0 -3.5 72 0.0 4 8   103.15     LegendNANA
07:00 1.2 -3.4 72 0.0 4 10   103.22     LegendNANA
08:00 2.4 -3.1 67 0.0 4 12   103.29     LegendNANA
09:00 4.2 -2.9 60 0.0 5 16   103.30     LegendNANA
10:00 6.0 -2.2 56 0.0 7 14   103.29     LegendNANA
11:00 8.2 0.8 59 0.0 8 14   103.28     LegendNANA
12:00 8.3 2.1 65 0.0 10 15   103.19     LegendNANA
13:00 8.8 0.8 57 0.0 12 16   103.12     LegendNANA
14:00 9.1 1.4 59 0.0 13 19   103.04     LegendNANA
15:00 9.2 2.8 64 0.0 12 14   103.00     LegendNANA
16:00 9.4 3.5 67 0.0 14 15   103.00     LegendNANA
17:00 9.6 3.8 67 0.0 13 18   102.93     LegendNANA
18:00 9.9 4.0 66 0.0 14 18   102.95     LegendNANA
19:00 10.5 5.4 71 0.0 14 22   102.84     LegendNANA
20:00 10.9 6.3 73 0.0 14 24   102.80     LegendNANA
21:00 11.1 7.4 78 0.0 14 24   102.72     LegendNANA
22:00 11.3 7.8 79 0.0 15 24   102.71     LegendNANA
23:00 11.6 8.3 80 0.0 14 25   102.57     LegendNANA

Notes on Data Quality.

Legend

  • E = Estimated
  • M = Missing
  • NA = Not Available*
  • [empty] = Indicates an unobserved value
Date modified: